www.pogodaiklimat.ru

АРХИВ ПОГОДЫ в Тюмени

Время (UTC), дата Ветер
(напр.,м/с)
 
Видим.   Явления Облачность Т
(С)
Тd
(С)
f
(%)
Тe
(С)
Тes
(С)
Комфортность P
(гПа)
Po
(гПа)
Тmin
(С)
Tmax
(С)
R
(мм)
S
(см)
00 18.09 ЮВ 2 50 км 9/0
[Ci fib]
+5.6 +4.7 94 +3 +3 по сезону 1012.4 999.8
03 18.09 ЮВ 2 4000 м 8/0
[Ac trans]
+5.8 +4.9 94 +3 +4 прохладно 1013.1 1000.5 +5.0
06 18.09 Ю 3 4000 м 9/0
[Ac As]
+12.8 +7.0 68 +12 +13 тепло 1013.3 1001.1
09 18.09 Ю 3 4000 м 10/0
[Ac und]
+13.5 +7.4 67 +12 +14 по сезону 1013.7 1001.5
12 18.09 ЮВ 3 4000 м 9/0
[Ac As Ci fib]
+13.9 +8.4 69 +13 +13 по сезону 1013.4 1001.3
15 18.09 ЮВ 2 50 км 9/0
[Ac As Ci sp]
+12.0 +8.0 76 +11 +11 по сезону 1013.5 1001.3 +14.8
18 18.09 ЮВ 2 27 км слабый ливневой дождь 10/6 600 м
[Cb cap Ac und]
+11.2 +8.1 81 +10 +10 тепло 1013.0 1000.7
21 18.09 В 2 50 км {ливн. осадки} 10/0
[Ac und]
+10.6 +7.3 80 +9 +9 тепло 1011.6 999.3
00 19.09 В 2 50 км {ливн. осадки} 10/0
[Ac und]
+10.4 +7.0 79 +9 +9 тепло 1010.2 998.0
03 19.09 ЮВ 3 4000 м слабый ливневой дождь 10/10 600 м
[Cb cap]
+10.7 +5.3 69 +9 +9 по сезону 1009.5 997.3 +10.2 0.1
06 19.09 В 4 4000 м {ливн. осадки} 10/0
[Ac und]
+11.6 +9.2 85 +9 +10 по сезону 1008.4 996.4 +9.6
09 19.09 В 3 4000 м в посл. час ливневой дождь 10/8 600 м
[Cb cap Ac und]
+11.2 +10.3 94 +9 +10 по сезону 1008.5 996.3
12 19.09 В 2 4000 м {ливн. осадки} 10/8 600 м
[Cb cap Ac und]
+11.7 +10.7 94 +10 +11 по сезону 1009.4 997.2
15 19.09 штиль 0 50 км местами туман поземный 9/3 600 м
[Sc Ac trans Ci fib]
+10.4 +10.0 97 +10 +10 по сезону 1010.0 997.8 +12.3 2
18 19.09 ЮЗ 1 50 м туман ?/? +8.1 +7.8 98 +7 +7 по сезону 1010.6 998.3
21 19.09 штиль 0 600 м туман 10/0
[Ac und]
+8.4 +8.2 99 +7 +7 по сезону 1011.2 998.9
00 20.09 ЮЗ 1 2300 м дымка {туман} 4/0
[Ac trans]
+7.2 +7.0 99 +6 +6 по сезону 1012.6 1000.1
03 20.09 ЮЗ 1 4000 м дымка {туман} 4/0
[Ci sp]
+6.8 +6.6 99 +6 +6 по сезону 1013.8 1001.3 +5.0
06 20.09 ЮЗ 2 4000 м {туман} 3/0
[Ci fib]
+12.6 +8.8 78 +12 +16 тепло 1014.4 1002.2
09 20.09 Ю 2 4000 м 8/8 600 м
[Cu med, cong]
+16.4 +7.0 54 +17 +18 тепло 1014.8 1002.8
12 20.09 З 2 4000 м 9/9 600 м
[Cb calv]
+16.1 +5.5 49 +16 +16 тепло 1015.5 1003.5
15 20.09 штиль 0 50 км 9/9 600 м
[Sc]
+12.7 +9.3 80 +12 +12 тепло 1016.4 1004.2 +17.3
18 20.09 штиль 0 50 км местами туман поземный 8/0
[Ac trans]
+8.8 +7.7 93 +8 +8 по сезону 1017.6 1005.2
21 20.09 З 1 50 км 6/0
[Ci fib]
+9.2 +8.0 92 +8 +8 тепло 1019.0 1006.6
00 21.09 штиль 0 2400 м дымка {ливн. осадки} 1/0
[Ci fib]
+5.8 +5.3 97 +5 +5 по сезону 1019.8 1007.2
03 21.09 ЮЗ 1 4000 м 9/0
[Ac trans]
+6.3 +6.3 100 +5 +5 по сезону 1020.5 1008.0 +4.1 0.0
06 21.09 ЮЗ 2 4000 м 9/0
[Ac As]
+11.9 +7.8 76 +11 +13 тепло 1021.5 1008.9
09 21.09 ЮЗ 4 4000 м 9/4 600 м
[Cu med, cong Ac trans]
+14.5 +5.0 53 +13 +15 тепло 1021.8 1009.5
12 21.09 ЮЗ 2 4000 м 9/0
[Ac As Ci sp]
+11.9 +6.2 68 +11 +11 по сезону 1023.0 1010.6
15 21.09 штиль 0 50 км 9/0
[Ac cast]
+8.1 +6.4 89 +7 +7 по сезону 1024.1 1011.6 +15.1
18 21.09 штиль 0 18 км 4/0
[Ci sp]
+4.8 +4.3 97 +4 +4 по сезону 1025.4 1012.7
21 21.09 штиль 0 20 км 3/0
[Ci fib]
+3.4 +3.4 100 +2 +2 по сезону 1026.7 1013.9
00 22.09 штиль 0 50 км 10/0
[Ac und]
+4.6 +4.6 100 +3 +3 по сезону 1027.6 1014.8
03 22.09 штиль 0 4000 м дымка 10/0
[Ac und]
+6.8 +5.9 94 +6 +6 по сезону 1028.3 1015.6 +2.9
06 22.09 ЮВ 1 4000 м слабый дождь 10/0
[Ac As]
+9.8 +6.5 80 +9 +11 по сезону 1028.9 1016.3
09 22.09 В 2 4000 м {дождь} 10/0
[Ac und]
+11.5 +6.7 72 +10 +12 по сезону 1029.1 1016.6
12 22.09 В 1 4000 м {дождь} 10/0
[Ac As]
+11.8 +7.7 76 +12 +12 по сезону 1029.4 1016.9
15 22.09 В 2 50 км {дождь} 10/0
[Ac und]
+10.7 +7.4 80 +9 +9 по сезону 1029.6 1017.1 +12.6 0.0
18 22.09 ЮВ 1 50 км слабый дождь 10/0
[Ac As]
+10.4 +8.0 85 +10 +10 тепло 1030.0 1017.5
21 22.09 В 1 50 км слабый дождь 10/0 600 м
[As op]
+9.6 +8.8 95 +9 +9 тепло 1030.8 1018.2
00 23.09 В 2 50 км слабый дождь 10/0
[As op]
+9.4 +8.6 95 +8 +8 тепло 1031.0 1018.4
03 23.09 В 2 4000 м {дождь} 10/0
[Ac und]
+9.4 +7.7 89 +8 +8 по сезону 1030.7 1018.1 +9.1 2
06 23.09 В 2 4000 м {дождь} 10/0
[Ac As]
+10.5 +8.2 86 +9 +10 по сезону 1031.2 1018.7
09 23.09 ЮВ 3 4000 м {ливн. осадки} 8/0
[Ac und]
+13.9 +9.7 76 +13 +14 тепло 1030.5 1018.2
12 23.09 ЮВ 3 4000 м {ливн. осадки} 9/0
[Ac und]
+15.0 +8.2 64 +14 +15 тепло 1029.9 1017.6
15 23.09 В 1 50 км 9/0
[Ac trans]
+12.6 +9.9 84 +13 +13 тепло 1030.0 1017.6 +16.4 0.0
18 23.09 ЮВ 2 50 км ясно +11.0 +9.0 87 +10 +10 тепло 1029.8 1017.3
21 23.09 ЮВ 1 50 км 3/0
[Ci fib]
+9.4 +7.7 89 +9 +9 тепло 1029.9 1017.3
00 24.09 ЮВ 1 50 км 10/0
[As op]
+10.6 +7.7 82 +10 +10 тепло 1029.8 1017.3
03 24.09 ЮВ 1 4000 м 9/0
[Ac trans]
+10.8 +7.7 81 +11 +11 тепло 1029.9 1017.4 +9.1
06 24.09 ЮВ 2 4000 м {ливн. осадки} 10/0
[Ac und]
+12.2 +8.0 75 +11 +13 тепло 1029.8 1017.4
09 24.09 ЮВ 1 4000 м 10/5 600 м
[Cb cap Ac und]
+14.2 +9.3 72 +15 +15 тепло 1029.1 1016.8
12 24.09 Ю 2 4000 м 9/1 600 м
[Sc diur, vesp Ac trans]
+15.9 +8.2 60 +16 +16 тепло 1028.3 1016.1
15 24.09 Ю 1 50 км 10/0
[Ac und]
+14.0 +9.3 73 +14 +14 тепло 1028.3 1016.1 +16.7 0.0
18 24.09 ЮВ 1 50 км 8/0
[Ac trans]
+13.0 +9.0 77 +13 +13 тепло 1028.5 1016.1
21 24.09 Ю 1 50 км ясно +10.2 +8.1 87 +10 +10 тепло 1028.7 1016.2

 

Местоположение метеостанции Тюмень (Тюменская область, Россия): широта 57.12 долгота 65.43 высота над уровнем моря 102 м.

В архиве по умолчанию представлена погода в Тюмени за последнюю неделю. Архивные данные за месяц целиком и за предыдущие месяцы, начиная с января 2011 года, Вы можете получить, выбрав интересующий диапазон дат из раскрывающегося списка и нажав кнопку "Ввод!".

Внимание! Время в таблицах - всемирное. Для получения местного времени необходимо прибавить поправку, которая в Тюмени равна 5 ч.

Ветер - указаны скорость ветра в м/с - средняя за 10 мин, порывы в срок и между сроками (в фигурных скобках) и направление, откуда дует ветер: С - северный, СВ - северо-восточный, В - восточный, ЮВ - юго-восточный, Ю - южный, ЮЗ - юго-западный, З - западный, СЗ - северо-западный.
Видимость - горизонтальная дальность видимости в метрах или километрах. При видимости от 1 до 10 км при отсутствии осадков обычно наблюдается дымка, при ухудшении видимости до 1 км и менее - туман. В сухую погоду видимость может ухудшаться дымом, пылью или мглою.
Явления - указаны атмосферные явления, наблюдавшиеся в срок или в последний час перед сроком; фигурными скобками обозначены явления, наблюдавшиеся между сроками (за 1-3 часа до срока); квадратными скобками обозначены град или гололедные отложения с указанием их диаметра в мм.
Облачность - указаны через наклонную черту общая и нижняя облачность в баллах и высота нижней границы облаков в метрах; квадратными скобками обозначены формы облаков: Ci - перистые, Cs - перисто-слоистые, Cc - перисто-кучевые, Ac - высококучевые, As - высокослоистые, Sc - слоисто-кучевые, Ns - слоисто-дождевые, Cu - кучевые, Cb - кучево-дождевые. Подробнее классификацию облаков см. в Атласе облаков (PDF).
T - Температура воздуха - температура, измеренная на высоте 2 м над землей.
Td - Температура точки росы - температура, при понижении до которой содержащийся в воздухе водяной пар достигнет насыщения.
f - Относительная влажность воздуха - влажноcть воздуха, измеренная на высоте 2 м над землей.
Te - Эффективная температура - температура, которую ощущает одетый по сезону человек в тени. Характеристика душности погоды. При расчете учитывается влияние влажности воздуха и скорости ветра на теплоощущения человека.
Tes - Эффективная температура на солнце - температура, которую ощущает человек, с поправкой на солнечный нагрев. Характеристика знойности погоды. Зависит от высоты солнца над горизонтом, облачности и скорости ветра. Ночью, в пасмурную погоду, а также при ветре 12 м/с и более поправка равна нулю.
P - Атмосферное давление - приведенное к уровню моря атмосферное давление.
Po - Атмосферное давление - измеренное на уровне метеостанции атмосферное давление.
Tmin - Минимальная температура - минимум температуры воздуха на высоте 2 м над землей.
Tmax - Максимальная температура - максимум температуры воздуха на высоте 2 м над землей.
R - Количество осадков - Количество выпавших осадков, мм. При наведении курсора мыши на число - период времени, за который выпало указанное количество осадков.
S - Снежный покров - Высота снежного покрова, см. При наведении курсора мыши на число - состояние снежного покрова и степень покрытия местности в баллах.